Location: Koszewko
(53.2876°N, 14.9061°E)
Time: 01:07:27
(UTC+00:00)

IGS 5A - Pass Details

Date: 03 March 2021
Orbit: 585 x 586 km, 97.5° (Epoch: 08 April)

Event Time Altitude Azimuth Distance (km) Brightness Sun altitude
Exits shadow 19:11:27 42° 31° (NNE) 850 4.1 -22.7°
Drops below altitude 10° 19:14:37 10° 355° (N) 1,925 6.4 -23.2°
Sets 19:16:50 0° 350° (N) 2,830 7.4 -23.5°
